Location: *
(32.3758°S, 63.1185°E)
Time: 16:40:49
(UTC+00:00)

OAO 2 Rocket - Pass Details

Date: 02 June 2023
Orbit: 674 x 742 km, 35.0° (Epoch: 22 September)

Event Time Altitude Azimuth Distance (km) Brightness Sun altitude
Rises 13:21:04 0° 299° (WNW) 3,029 9.0 -6.8°
Reaches altitude 10° 13:23:28 10° 302° (WNW) 2,112 7.5 -7.3°
Maximum altitude 13:28:20 62° 22° (NNE) 763 3.5 -8.3°
Enters shadow 13:32:59 11° 101° (E) 2,034 5.0 -9.2°
